User: anonymous   Login
Location: Goheenville
(40.9070°N, 79.3720°W)
Time: 17:18:59
(UTC-05:00)
Language:

NOAA 11 - Orbit

View from above orbital plane
View from above orbital plane
View from above satellite
View from above satellite

Ground track
Ground track

The orbit data is extracted from the following two-line orbital elements,

1 19531U 88089A   16345.27941854 -.00000005  00000-0  19142-4 0  9998
2 19531  98.5807  45.2236 0010588 215.7741 144.2725 14.15199628456038
Epoch (UTC): 10 December 2016 06:42:21
Eccentricity: 0.0010588
inclination: 98.5807°
perigee height: 834 km
apogee height: 849 km
right ascension of ascending node: 45.2236°
argument of perigee: 215.7741°
revolutions per day: 14.15199628
mean anomaly at epoch: 144.2725°
orbit number at epoch: 45603

The dashed part of the orbit path shows where the satellite is in the earth's shadow,  

DLR